Weather History for San Martin, CA

Change the Weather History Date:

Monday, September 16, 2013

  Actual Average Record
Temperature  
Mean Temperature 73 °F -  
Max Temperature 84 °F - - ()
Min Temperature 62 °F - - ()
Cooling Degree Days 8    
Growing Degree Days 23 (Base 50)    
Moisture  
Dew Point 56 °F    
Average Humidity 64    
Maximum Humidity 88    
Minimum Humidity 32    
Precipitation  
Precipitation 0.00 in - - ()
Sea Level Pressure  
Sea Level Pressure 29.87 in    
Wind  
Wind Speed 10 mph (NNW)    
Max Wind Speed 21 mph    
Max Gust Speed 29 mph    
Visibility 10 miles    
Events      
T = Trace of Precipitation, MM = Missing Value Source: NWS Daily Summary

Daily Weather History Graph

Daily Weather History Graph

Search for Another Location

Airport:

Trip Planner

Search our weather history database for the weather conditions in past years. The results will help you decide how hot, cold, wet, or windy it might be!

Date:

Astronomy

Sep. 16, 2013 Rise Set
Actual Time 6:49 AM PDT 7:11 PM PDT
Civil Twilight 6:23 AM PDT 7:37 PM PDT
Nautical Twilight 5:52 AM PDT 8:08 PM PDT
Astronomical Twilight 5:21 AM PDT 8:39 PM PDT
Moon 5:21 PM PDT (9/16) 3:45 AM PDT (9/16)
Length of Visible Light 13h 14m
Length of Day
12h 22m
Waxing Gibbous, 91% of the Moon is Illuminated
Sep 16
Waxing Gibbous
Sep 19
Full
Sep 26
Last Quarter
Oct 4
New
Oct 11
First Quarter

Hourly Weather History & Observations

Time (PDT) Temp. Heat Index Dew Point Humidity Pressure Visibility Wind Dir Wind Speed Gust Speed Precip Events Conditions
12:15 AM 62.6 °F - 59.0 °F 88% 29.88 in 10.0 mi NNW 10.4 mph - N/A   Clear
12:35 AM 62.6 °F - 59.0 °F 88% 29.88 in 10.0 mi NNW 11.5 mph 17.3 mph N/A   Scattered Clouds
12:55 AM 62.6 °F - 59.0 °F 88% 29.88 in 10.0 mi NNW 10.4 mph 18.4 mph N/A   Overcast
1:15 AM 62.6 °F - 59.0 °F 88% 29.88 in 10.0 mi NNW 13.8 mph 20.7 mph N/A   Overcast
1:35 AM 62.6 °F - 59.0 °F 88% 29.88 in 10.0 mi NNW 11.5 mph - N/A   Overcast
1:55 AM 62.6 °F - 59.0 °F 88% 29.88 in 10.0 mi NNW 12.7 mph - N/A   Overcast
2:15 AM 62.6 °F - 59.0 °F 88% 29.88 in 10.0 mi NNW 13.8 mph 18.4 mph N/A   Overcast
2:35 AM 62.6 °F - 59.0 °F 88% 29.89 in 10.0 mi NW 9.2 mph 18.4 mph N/A   Overcast
2:55 AM 64.4 °F - 59.0 °F 83% 29.89 in 10.0 mi NNW 13.8 mph 17.3 mph N/A   Overcast
3:15 AM 64.4 °F - 59.0 °F 83% 29.88 in 10.0 mi NNW 9.2 mph - N/A   Overcast
3:35 AM 64.4 °F - 59.0 °F 83% 29.88 in 10.0 mi North 5.8 mph - N/A   Overcast
3:55 AM 64.4 °F - 57.2 °F 77% 29.89 in 10.0 mi North 8.1 mph - N/A   Overcast
4:15 AM 62.6 °F - 57.2 °F 82% 29.89 in 10.0 mi North 5.8 mph - N/A   Overcast
4:35 AM 62.6 °F - 57.2 °F 82% 29.88 in 10.0 mi North 5.8 mph - N/A   Overcast
4:55 AM 62.6 °F - 57.2 °F 82% 29.89 in 10.0 mi North 6.9 mph - N/A   Overcast
5:15 AM 62.6 °F - 57.2 °F 82% 29.89 in 10.0 mi NNE 3.5 mph - N/A   Overcast
5:35 AM 62.6 °F - 57.2 °F 82% 29.90 in 10.0 mi North 5.8 mph - N/A   Overcast
5:55 AM 62.6 °F - 57.2 °F 82% 29.89 in 10.0 mi North 5.8 mph - N/A   Overcast
6:15 AM 62.6 °F - 57.2 °F 82% 29.90 in 10.0 mi North 5.8 mph - N/A   Overcast
6:35 AM 62.6 °F - 57.2 °F 82% 29.90 in 10.0 mi North 6.9 mph - N/A   Overcast
6:55 AM 62.6 °F - 57.2 °F 82% 29.90 in 10.0 mi North 6.9 mph - N/A   Overcast
7:15 AM 62.6 °F - 57.2 °F 82% 29.90 in 10.0 mi North 6.9 mph - N/A   Overcast
7:35 AM 62.6 °F - 57.2 °F 82% 29.90 in 10.0 mi NNW 6.9 mph - N/A   Overcast
7:55 AM 62.6 °F - 57.2 °F 82% 29.90 in 10.0 mi NNW 5.8 mph - N/A   Overcast
8:15 AM 62.6 °F - 57.2 °F 82% 29.91 in 10.0 mi North 5.8 mph - N/A   Overcast
8:35 AM 64.4 °F - 57.2 °F 77% 29.91 in 10.0 mi North 4.6 mph - N/A   Overcast
8:55 AM 64.4 °F - 57.2 °F 77% 29.91 in 10.0 mi North 5.8 mph - N/A   Overcast
9:15 AM 64.4 °F - 57.2 °F 77% 29.91 in 10.0 mi North 6.9 mph - N/A   Mostly Cloudy
9:35 AM 66.2 °F - 57.2 °F 73% 29.91 in 10.0 mi NNW 5.8 mph - N/A   Partly Cloudy
9:55 AM 68.0 °F - 59.0 °F 73% 29.92 in 10.0 mi NNW 9.2 mph - N/A   Clear
10:15 AM 68.0 °F - 59.0 °F 73% 29.91 in 10.0 mi NNW 8.1 mph - N/A   Clear
10:35 AM 71.6 °F - 57.2 °F 60% 29.91 in 10.0 mi NNW 10.4 mph - N/A   Clear
10:55 AM 71.6 °F - 57.2 °F 60% 29.91 in 10.0 mi NNW 9.2 mph - N/A   Clear
11:15 AM 73.4 °F - 57.2 °F 57% 29.90 in 10.0 mi NNW 12.7 mph - N/A   Clear
11:35 AM 75.2 °F - 57.2 °F 53% 29.90 in 10.0 mi NNW 13.8 mph 18.4 mph N/A   Clear
11:55 AM 75.2 °F - 57.2 °F 53% 29.90 in 10.0 mi NNW 11.5 mph - N/A   Clear
12:15 PM 77.0 °F - 55.4 °F 47% 29.89 in 10.0 mi NNW 10.4 mph - N/A   Clear
12:35 PM 78.8 °F - 53.6 °F 42% 29.88 in 10.0 mi NNW 12.7 mph - N/A   Clear
12:55 PM 80.6 °F 80.3 °F 53.6 °F 39% 29.88 in 10.0 mi NW 9.2 mph 17.3 mph N/A   Clear
1:15 PM 80.6 °F 80.3 °F 53.6 °F 39% 29.87 in 10.0 mi NNW 10.4 mph 16.1 mph N/A   Clear
1:35 PM 82.4 °F - 51.8 °F 35% 29.86 in 10.0 mi NNW 10.4 mph - N/A   Clear
1:55 PM 82.4 °F - 50.0 °F 32% 29.85 in 10.0 mi NNW 9.2 mph 16.1 mph N/A   Clear
2:15 PM 82.4 °F - 51.8 °F 35% 29.84 in 10.0 mi NNW 11.5 mph - N/A   Clear
2:35 PM 82.4 °F 81.4 °F 53.6 °F 37% 29.83 in 10.0 mi NW 10.4 mph - N/A   Clear
2:55 PM 84.2 °F 82.8 °F 53.6 °F 35% 29.82 in 10.0 mi North 11.5 mph 17.3 mph N/A   Clear
3:15 PM 84.2 °F 82.8 °F 53.6 °F 35% 29.82 in 10.0 mi NW 13.8 mph 18.4 mph N/A   Clear
3:35 PM 84.2 °F 82.8 °F 53.6 °F 35% 29.81 in 10.0 mi NNW 16.1 mph 19.6 mph N/A   Clear
3:55 PM 84.2 °F 82.8 °F 53.6 °F 35% 29.80 in 10.0 mi NNW 15.0 mph - N/A   Clear
4:15 PM 82.4 °F 81.4 °F 53.6 °F 37% 29.80 in 10.0 mi NNW 13.8 mph 20.7 mph N/A   Clear
4:35 PM 82.4 °F 81.7 °F 55.4 °F 39% 29.80 in 10.0 mi NW 13.8 mph 20.7 mph N/A   Clear
4:55 PM 82.4 °F 81.7 °F 55.4 °F 39% 29.80 in 10.0 mi NW 16.1 mph 20.7 mph N/A   Clear
5:15 PM 80.6 °F 80.5 °F 55.4 °F 42% 29.80 in 10.0 mi NW 16.1 mph 26.5 mph N/A   Clear
5:35 PM 80.6 °F 80.3 °F 53.6 °F 39% 29.80 in 10.0 mi NW 20.7 mph 28.8 mph N/A   Clear
5:55 PM 77.0 °F - 53.6 °F 44% 29.81 in 10.0 mi NW 16.1 mph 25.3 mph N/A   Clear
6:15 PM 75.2 °F - 51.8 °F 44% 29.81 in 10.0 mi NW 15.0 mph 21.9 mph N/A   Clear
6:35 PM 73.4 °F - 53.6 °F 50% 29.81 in 10.0 mi NW 15.0 mph 24.2 mph N/A   Clear
6:55 PM 73.4 °F - 53.6 °F 50% 29.81 in 10.0 mi NNW 11.5 mph 20.7 mph N/A   Clear
7:15 PM 71.6 °F - 53.6 °F 53% 29.82 in 10.0 mi NW 11.5 mph 17.3 mph N/A   Clear
7:35 PM 71.6 °F - 53.6 °F 53% 29.82 in 10.0 mi NW 13.8 mph 20.7 mph N/A   Clear
7:55 PM 69.8 °F - 53.6 °F 56% 29.83 in 10.0 mi NW 13.8 mph - N/A   Mostly Cloudy
8:15 PM 68.0 °F - 53.6 °F 60% 29.84 in 10.0 mi NW 12.7 mph 23.0 mph N/A   Scattered Clouds
8:35 PM 66.2 °F - 53.6 °F 64% 29.85 in 10.0 mi NW 16.1 mph 19.6 mph N/A   Clear
8:55 PM 66.2 °F - 53.6 °F 64% 29.85 in 10.0 mi NW 12.7 mph 20.7 mph N/A   Clear
9:15 PM 66.2 °F - 53.6 °F 64% 29.86 in 10.0 mi NNW 12.7 mph 17.3 mph N/A   Clear
9:35 PM 64.4 °F - 53.6 °F 68% 29.87 in 10.0 mi NW 8.1 mph 16.1 mph N/A   Clear
9:55 PM 64.4 °F - 53.6 °F 68% 29.87 in 10.0 mi NW 9.2 mph - N/A   Clear
10:15 PM 64.4 °F - 53.6 °F 68% 29.87 in 10.0 mi NW 8.1 mph - N/A   Clear
10:35 PM 62.6 °F - 53.6 °F 72% 29.88 in 10.0 mi WNW 6.9 mph - N/A   Clear
10:55 PM 62.6 °F - 53.6 °F 72% 29.88 in 10.0 mi West 4.6 mph - N/A   Clear
11:15 PM 62.6 °F - 53.6 °F 72% 29.89 in 10.0 mi WNW 4.6 mph - N/A   Clear
11:35 PM 62.6 °F - 53.6 °F 72% 29.89 in 10.0 mi NW 3.5 mph - N/A   Clear
11:55 PM 62.6 °F - 53.6 °F 72% 29.89 in 10.0 mi NNW 3.5 mph - N/A   Clear